User: anonymous   Login
Location: Kosice
(0.0000°N, 21.2500°E)
Time: 10:42:49
(UTC+02:00)
Language:

Cosmos 1408 - Orbit

View from above orbital plane
View from above orbital plane
View from above satellite
View from above satellite

Ground track
Ground track

The orbit data is extracted from the following two-line orbital elements,

1 13552U 82092A   21102.40537684  .00001192  00000-0  41358-4 0  9998
2 13552  82.5679 340.0503 0018171 152.0684 208.1535 15.28574896109700
Epoch (UTC): 12 April 2021 09:43:44
Eccentricity: 0.0018171
inclination: 82.5679°
perigee height: 467 km
apogee height: 492 km
right ascension of ascending node: 340.0503°
argument of perigee: 152.0684°
revolutions per day: 15.28574896
mean anomaly at epoch: 208.1535°
orbit number at epoch: 10970

The dashed part of the orbit path shows where the satellite is in the earth's shadow,  

DLR